Location: Gwatt
(46.7204°N, 7.6223°E)
Time: 20:54:34
(UTC+00:00)

Transit 2A - All Passes

Search period start: 21 January 2021 00:00
Search period end: 31 January 2021 00:00
Orbit: 598 x 960 km, 66.7° (Epoch: 21 January)

Date Brightness Start Highest point End Pass type
(mag) Time Alt. Az. Time Alt. Az. Time Alt. Az.
21 Jan - 02:29:58 10° SE 02:32:52 14° ESE 02:35:39 10° ENE visible
21 Jan - 04:09:29 10° SSW 04:15:24 81° ESE 04:20:46 10° NE visible
21 Jan - 05:54:37 10° W 05:59:07 24° NW 06:03:19 10° NNE visible
21 Jan - 11:11:39 10° NNW 11:15:19 22° NE 11:18:47 10° E daylight
21 Jan - 12:54:23 10° NW 12:58:57 64° WSW 13:03:14 10° SSE daylight
22 Jan - 03:35:28 10° SSW 03:41:16 58° ESE 03:46:32 10° NE visible
22 Jan - 05:19:45 10° WSW 05:24:44 30° NW 05:29:20 10° NNE visible
22 Jan - 10:37:46 10° N 10:40:52 17° NNE 10:43:50 10° ENE daylight
22 Jan - 12:20:10 10° NNW 12:24:49 86° NE 12:29:10 10° SE daylight
22 Jan - 14:05:52 10° W 14:07:06 11° WSW 14:08:19 10° WSW daylight
23 Jan - 03:01:39 10° S 03:07:09 42° ESE 03:12:13 10° NE visible
23 Jan - 04:45:02 10° WSW 04:50:24 39° NW 04:55:19 10° NNE visible
23 Jan - 06:33:01 10° NW 06:34:59 12° NNW 06:36:54 10° N visible
23 Jan - 10:03:58 10° N 10:06:21 14° NNE 10:08:39 10° ENE daylight
23 Jan - 11:46:00 10° NNW 11:50:37 59° NE 11:54:55 10° SE daylight
23 Jan - 13:30:17 10° WNW 13:33:13 17° WSW 13:36:02 10° SSW daylight
24 Jan - 02:28:04 10° S 02:33:06 30° ESE 02:37:46 10° NE visible
24 Jan - 04:10:29 10° SW 04:16:08 52° NW 04:21:16 10° NNE visible
24 Jan - 05:57:30 10° WNW 06:00:26 14° NNW 06:03:14 10° N visible
24 Jan - 09:30:27 10° N 09:31:46 11° NNE 09:33:06 10° NE daylight
24 Jan - 11:11:56 10° NNW 11:16:20 41° NE 11:20:30 10° ESE daylight
24 Jan - 12:55:32 10° NW 12:59:15 25° WSW 13:02:49 10° SSW daylight
25 Jan - 01:54:48 10° SSE 01:59:06 21° ESE 02:03:07 10° ENE visible
25 Jan - 03:36:04 10° SW 03:41:54 71° NW 03:47:10 10° NNE visible
25 Jan - 05:22:14 10° WNW 05:25:55 18° NW 05:29:24 10° N visible
25 Jan - 10:37:54 10° NNW 10:42:01 30° NE 10:45:55 10° ESE daylight
25 Jan - 12:21:02 10° NW 12:25:15 38° WSW 12:29:15 10° S daylight
26 Jan - 01:22:01 10° SE 01:25:07 15° ESE 01:28:07 10° ENE night (unlit)
26 Jan - 03:01:51 10° SSW 03:07:42 85° ESE 03:13:00 10° NE visible
26 Jan - 04:47:10 10° W 04:51:28 22° NW 04:55:29 10° NNE visible
26 Jan - 10:03:55 10° NNW 10:07:38 23° NE 10:11:09 10° E daylight
26 Jan - 11:46:42 10° NW 11:51:11 58° WSW 11:55:25 10° SSE daylight
27 Jan - 02:27:47 10° SSW 02:33:33 62° ESE 02:38:47 10° NE visible
27 Jan - 04:12:15 10° WSW 04:17:04 28° NW 04:21:32 10° NNE visible
27 Jan - 09:30:01 10° N 09:33:11 18° NE 09:36:13 10° ENE daylight
27 Jan - 11:12:27 10° NW 11:17:03 88° WSW 11:21:24 10° SSE daylight
28 Jan - 01:53:56 10° S 01:59:27 44° ESE 02:04:29 10° NE visible
28 Jan - 03:37:30 10° WSW 03:42:44 37° NW 03:47:31 10° NNE visible
28 Jan - 05:25:48 10° NW 05:27:21 11° NNW 05:28:53 10° N visible
28 Jan - 08:56:13 10° N 08:58:41 14° NNE 09:01:04 10° ENE daylight
28 Jan - 10:38:18 10° NNW 10:42:52 63° NE 10:47:10 10° SE daylight
28 Jan - 12:22:45 10° WNW 12:25:24 16° WSW 12:27:59 10° SW daylight
29 Jan - 01:20:18 10° S 01:25:23 32° ESE 01:30:04 10° NE night (unlit)
29 Jan - 03:02:54 10° SW 03:08:27 49° NW 03:13:28 10° NNE visible
29 Jan - 04:50:09 10° WNW 04:52:47 14° NNW 04:55:19 10° N visible
29 Jan - 08:22:40 10° N 08:24:08 11° NNE 08:25:34 10° NE daylight
29 Jan - 10:04:12 10° NNW 10:08:37 43° NE 10:12:47 10° ESE daylight
29 Jan - 11:47:54 10° WNW 11:51:27 23° WSW 11:54:54 10° SSW daylight
30 Jan - 00:46:57 10° SSE 00:51:22 23° ESE 00:55:28 10° ENE night (unlit)
30 Jan - 02:28:28 10° SW 02:34:12 66° NW 02:39:23 10° NNE visible
30 Jan - 04:14:49 10° WNW 04:18:16 17° NNW 04:21:33 10° N visible
30 Jan - 09:30:10 10° NNW 09:34:19 31° NE 09:38:13 10° ESE daylight
30 Jan - 11:13:22 10° NW 11:17:28 35° WSW 11:21:24 10° S daylight
